Chapel Hill, NC

7:24 AM EDT on October 20, 2017 (GMT -0400)
Williams

Weather History for KIGX - February, 2014

Change the Weather History Date:

Wednesday, February 5, 2014

  Actual Average Record
Temperature  
Mean Temperature 44 °F -  
Max Temperature 51 °F 50 °F 74 °F (1962)
Min Temperature 37 °F 27 °F 10 °F (1981)
Degree Days  
Heating Degree Days 21    
Moisture  
Dew Point 39 °F    
Average Humidity 93    
Maximum Humidity 100    
Minimum Humidity 58    
Precipitation  
Precipitation 0.04 in - - ()
Sea Level Pressure  
Sea Level Pressure 29.92 in    
Wind  
Wind Speed 2 mph (WNW)    
Max Wind Speed 14 mph    
Max Gust Speed 18 mph    
Visibility 4 miles    
Events Fog , Rain    
Averages and records for this station are not official NWS values.
T = Trace of Precipitation, MM = Missing Value Source: NWS Daily Summary

Daily Weather History Graph

Daily Weather History Graph

Search for Another Location

Airport or City:

Trip Planner

Search our weather history database for the weather conditions in past years. The results will help you decide how hot, cold, wet, or windy it might be!

Date:

Astronomy

Feb. 05, 2014 Rise Set
Actual Time 7:13 AM EST 5:47 PM EST
Civil Twilight 6:46 AM EST 6:14 PM EST
Nautical Twilight 6:16 AM EST 6:44 PM EST
Astronomical Twilight 5:46 AM EST 7:14 PM EST
Moon 10:40 AM EST (2/5) No Moon Set
Length of Visible Light 11h 27m
Length of Day
10h 34m
Waxing Crescent, 39% of the Moon is Illuminated
Feb 5
Waxing Crescent
Feb 6
First Quarter
Feb 14
Full
Feb 22
Last Quarter
Mar 1
New

Hourly Weather History & Observations

Time (EST) Temp. Windchill Dew Point Humidity Pressure Visibility Wind Dir Wind Speed Gust Speed Precip Events Conditions
12:56 AM 37.9 °F - 37.0 °F 97% 30.08 in 1.8 mi Calm Calm - 0.01 in Rain Light Rain
1:07 AM 37.9 °F 33.5 °F 37.0 °F 97% 30.06 in 3.0 mi NE 5.8 mph - 0.00 in Rain Light Rain
1:20 AM 37.9 °F - 37.0 °F 97% 30.05 in 2.0 mi Calm Calm - 0.00 in   Overcast
1:56 AM 37.9 °F - 37.0 °F 97% 30.06 in 2.0 mi Calm Calm - 0.02 in Rain Light Rain
2:09 AM 37.9 °F - 37.0 °F 97% 30.05 in 3.0 mi Calm Calm - 0.00 in   Overcast
2:16 AM 37.9 °F - 37.0 °F 97% 30.05 in 2.5 mi Calm Calm - 0.00 in   Overcast
2:48 AM 37.9 °F - 37.0 °F 97% 30.02 in 2.5 mi Calm Calm - 0.00 in   Overcast
2:53 AM 37.4 °F 34.9 °F 37.4 °F 100% 30.02 in 2.5 mi ENE 3.5 mph - 0.00 in   Overcast
2:56 AM 37.9 °F - 37.0 °F 97% 30.02 in 2.5 mi Calm Calm - 0.00 in   Overcast
3:00 AM 37.9 °F 35.5 °F 37.0 °F 97% 30.01 in 2.5 mi ENE 3.5 mph - N/A   Overcast
3:16 AM 37.9 °F - 37.0 °F 97% 30.00 in 3.0 mi Calm Calm - N/A   Overcast
3:19 AM 37.9 °F - 37.0 °F 97% 30.00 in 2.5 mi Calm Calm - N/A   Overcast
3:30 AM 37.9 °F - 37.0 °F 97% 29.99 in 4.0 mi Calm Calm - N/A   Overcast
3:56 AM 37.9 °F - 37.0 °F 97% 29.98 in 3.0 mi Calm Calm - N/A   Overcast
4:12 AM 37.9 °F - 37.0 °F 97% 29.97 in 2.5 mi Calm Calm - N/A   Overcast
4:56 AM 37.9 °F - 37.0 °F 97% 29.94 in 1.8 mi Calm Calm - N/A   Overcast
5:32 AM 37.9 °F 35.5 °F 37.0 °F 97% 29.91 in 0.5 mi ESE 3.5 mph - N/A Fog Fog
5:45 AM 37.9 °F 33.5 °F 37.0 °F 97% 29.95 in 1.0 mi West 5.8 mph - N/A   Mist
5:56 AM 37.9 °F 32.7 °F 37.0 °F 97% 29.97 in 1.2 mi WNW 6.9 mph - N/A   Overcast
6:54 AM 37.4 °F - 37.4 °F 100% 29.93 in 2.0 mi Calm Calm - 0.00 in   Overcast
6:56 AM 37.9 °F - 37.9 °F 100% 29.94 in 2.0 mi Calm Calm - 0.00 in   Overcast
7:21 AM 37.9 °F - 37.0 °F 97% 29.91 in 1.5 mi Calm Calm - N/A   Overcast
7:52 AM 37.4 °F - 37.4 °F 100% 29.91 in 0.8 mi Calm Calm - N/A   Mist
7:56 AM 37.9 °F - 37.9 °F 100% 29.92 in 0.8 mi Calm Calm - N/A   Mist
8:03 AM 37.9 °F 35.5 °F 37.9 °F 100% 29.91 in 1.2 mi Variable 3.5 mph - N/A   Overcast
8:56 AM 39.0 °F 36.8 °F 37.9 °F 96% 29.88 in 1.0 mi SSE 3.5 mph - 0.01 in   Overcast
9:34 AM 39.0 °F 36.8 °F 37.9 °F 96% 29.86 in 0.8 mi SSE 3.5 mph - 0.00 in Rain Light Rain
9:47 AM 39.9 °F 37.8 °F 39.0 °F 97% 29.87 in 1.0 mi Variable 3.5 mph - 0.00 in   Overcast
9:56 AM 39.9 °F - 39.0 °F 97% 29.87 in 1.2 mi Calm Calm - 0.00 in   Overcast
10:30 AM 41.0 °F 39.0 °F 39.9 °F 96% 29.87 in 0.8 mi Variable 3.5 mph - N/A   Overcast
10:52 AM 41.0 °F 38.0 °F 39.2 °F 93% 29.87 in 1.0 mi Variable 4.6 mph - N/A   Overcast
10:56 AM 41.0 °F - 39.9 °F 96% 29.87 in 1.2 mi Calm Calm - N/A   Overcast
11:28 AM 42.1 °F - 41.0 °F 96% 29.85 in 3.0 mi Calm Calm - N/A   Overcast
11:36 AM 42.1 °F 39.2 °F 41.0 °F 96% 29.85 in 1.8 mi Variable 4.6 mph - 0.00 in Rain Light Rain
11:47 AM 43.0 °F 41.3 °F 42.1 °F 97% 29.84 in 3.0 mi SW 3.5 mph - 0.00 in   Overcast
11:56 AM 43.0 °F 41.3 °F 42.1 °F 97% 29.84 in 4.0 mi Variable 3.5 mph - 0.00 in   Overcast
12:27 PM 44.1 °F - 43.0 °F 96% 29.82 in 2.5 mi Calm Calm - N/A   Overcast
12:35 PM 45.0 °F 43.5 °F 43.0 °F 93% 29.82 in 3.0 mi Variable 3.5 mph - N/A   Overcast
12:56 PM 45.0 °F 41.8 °F 44.1 °F 97% 29.81 in 6.0 mi West 5.8 mph - N/A   Overcast
1:53 PM 46.4 °F 44.3 °F 46.4 °F 100% 29.79 in 5.0 mi Variable 4.6 mph - N/A   Overcast
1:56 PM 46.9 °F - 46.0 °F 97% 29.80 in 6.0 mi North - - N/A   Overcast
2:17 PM 48.0 °F - 46.0 °F 93% 29.79 in 10.0 mi West 8.1 mph - N/A   Overcast
2:56 PM 50.0 °F - 46.0 °F 86% 29.80 in 10.0 mi Variable 5.8 mph - N/A   Overcast
3:49 PM 51.1 °F - 46.0 °F 83% 29.82 in 10.0 mi Variable 5.8 mph - N/A   Scattered Clouds
3:56 PM 51.1 °F - 46.0 °F 83% 29.82 in 10.0 mi Variable 5.8 mph - N/A   Partly Cloudy
4:56 PM 51.1 °F - 46.0 °F 83% 29.84 in 10.0 mi Variable 4.6 mph - N/A   Clear
5:56 PM 50.0 °F - 46.0 °F 86% 29.87 in 10.0 mi Variable 3.5 mph - N/A   Clear
6:56 PM 46.0 °F 44.8 °F 44.1 °F 93% 29.91 in 7.0 mi West 3.5 mph - N/A   Clear
7:56 PM 46.0 °F 43.1 °F 43.0 °F 89% 29.95 in 10.0 mi West 5.8 mph - N/A   Clear
8:56 PM 46.9 °F - 35.1 °F 63% 29.98 in 10.0 mi WNW 13.8 mph 18.4 mph N/A   Clear
9:56 PM 45.0 °F 40.6 °F 30.9 °F 58% 30.03 in 10.0 mi NW 8.1 mph - N/A   Partly Cloudy
10:56 PM 42.1 °F 37.1 °F 28.9 °F 60% 30.06 in 10.0 mi NNW 8.1 mph - N/A   Partly Cloudy